Regional Weather Roundup
Issued by NWS

Home | Current Version | Previous Version | Text Only | Print | Product List | Glossary On
Versions: 1 2 3 4 5 6 7 8 9 10 11 12 13 14 15 16 17 18 19 20 21 22 23 24 25 26 27 28 29 30 31 32 33 34 35 36 37 38 39 40 41 42 43 44 45 46 47 48 49 50
000
ASUS43 KMPX 031410
RWRMN
WEATHER ROUNDUP FOR MINNESOTA
NATIONAL WEATHER SERVICE TWIN CITIES/CHANHASSEN MN
900 AM CDT THU SEP 03 2015


NOTE: "FAIR" INDICATES FEW OR NO CLOUDS BELOW 12,000 FEET WITH NO
SIGNIFICANT WEATHER AND/OR OBSTRUCTIONS TO VISIBILITY. N/A MEANS
CURRENT SKY AND/OR WEATHER CONDITIONS ARE NOT AVAILABLE.

MNZ060>063-068>070-031500-
   Twin Cities Metro

CITY           SKY/WX    TMP DP  RH WIND       PRES   REMARKS
TWIN CITIES    CLOUDY    70  69  97 E9        29.91S FOG
ST PAUL        PTSUNNY   70  68  93 SE9       29.92R
CRYSTAL        CLOUDY    73  69  87 SE8       29.90S FOG
BLAINE         CLOUDY    72  72 100 E6        29.92S FOG
LAKEVILLE      FOG       68  68 100 SE3       29.92R VSB 1/4
EDEN PRAIRIE   FOG       70  68  93 E7        29.90S VSB 1/2
SOUTH ST PAUL  CLOUDY    70  68  93 CALM      29.92R FOG
LAKE ELMO      FOG       68  68 100 E3        29.94R VSB 1/4
$$
MNZ001>005-007-008-013>017-022>024-027-028-031500-
   Northwest Minnesota

CITY           SKY/WX    TMP DP  RH WIND       PRES   REMARKS
BEMIDJI        CLOUDY    67  64  89 SE14      29.91S
HALLOCK        CLOUDY    72  70  94 SE16      29.78F
ROSEAU         CLOUDY    68  63  83 SE14      29.85F
WARROAD        CLOUDY    66  63  88 SE10      29.88S
THIEF RVR FALL MOSUNNY   70  68  94 SE14      29.84S
CROOKSTON      SUNNY     73  70  88 SE15      29.81S
FOSSTON        MOSUNNY   70  64  83 SE10G18   29.87R
DETROIT LAKES  CLOUDY    70  64  83 SE16G24   29.88R
MOORHEAD       CLOUDY    73  70  88 SE15G21   29.81S
PARK RAPIDS    SUNNY     71  64  78 SE10      29.91R
MAHNOMEN       FAIR      71  66  83 SE14G22   29.85S
$$
MNZ006-009>011-018-025>026-031500-
   North Central Minnesota

CITY           SKY/WX    TMP DP  RH WIND       PRES   REMARKS
BAUDETTE       CLOUDY    66  63  90 SE13      29.91F
FLAG ISLAND    CLOUDY    66  63  88 S18       29.88S
INTL FALLS     CLOUDY    64  62  93 S6        29.97R
WASKISH        CLOUDY    66  64  94 E12       29.92S FOG
BIG FORK       CLOUDY    66  63  88 SE5       29.97S
LONGVILLE      SUNNY     66  63  88 SE6       29.94S
GRAND RAPIDS     N/A     63  61  94 SE8       29.97S
CRANE LAKE     MOSUNNY   57  57 100 S2        30.00S
ORR            CLOUDY    61  59  94 CALM      29.97R
COOK           CLOUDY    63  61  94 SE5       30.00R
WALKER         CLOUDY    66  64  93 SE7       29.93S
$$
MNZ012-019>021-037-031500-
   Northeast Minnesota

CITY           SKY/WX    TMP DP  RH WIND       PRES   REMARKS
DULUTH         DRZL/FOG  62  61  96 E10       30.00R VSB 1/4
ELY            SUNNY     61  61 100 CALM      30.01S
HIBBING        CLOUDY    62  61  96 SE10      29.99S
EVELETH        CLOUDY    63  63 100 E3        30.01R
DULUTH HARBOR  FOG       59  57  94 NE10      30.00S VSB 1/2
TWO HARBORS    HAZE      64  59  82 NE7       29.99R VSB 1/2
SILVER BAY     FOG       63  61  94 NE3       30.00R VSB<1/4
GRAND MARAIS     N/A     58  55  90 CALM      30.02R
G MARAIS ARPRT SUNNY     64  54  68 E3        30.06R
$$
MNZ029>031-032-039>041-046>048-054>057-064-031500-
   West Central Minnesota

CITY           SKY/WX    TMP DP  RH WIND       PRES   REMARKS
FERGUS FALLS   CLOUDY    72  72 100 SE15      29.83S FOG
WHEATON        CLOUDY    68  68 100 SE15      29.84R FOG
MORRIS         FOG       70  70 100 SE13      29.85R VSB 1/2
ALEXANDRIA     FOG       68  68 100 E13       29.90S VSB 1/2
ELBOW LAKE     CLOUDY    69  68  96 E13       29.85S FOG
WADENA         PTSUNNY   72  66  83 SE14      29.89S
GLENWOOD       FOG       68  66  94 E12       29.90R VSB 1/4
APPLETON       FOG       72  68  88 SE10      29.85R VSB 3/4
BENSON         FOG       70  68  94 SE9       29.86S VSB 1
ORTONVILLE     CLOUDY    70  68  94 SE10      29.84R VSB 1/4
MADISON        PTSUNNY   72  70  94 SE10      29.85R FOG
WILLMAR        FOG       70  70 100 E10       29.89S VSB 1/2
$$
MNZ033>034-036-042>043-049>051-058-059-031500-
   Central Minnesota

CITY           SKY/WX    TMP DP  RH WIND       PRES   REMARKS
ST CLOUD       CLOUDY    69  67  93 E7        29.91S
SAUK CENTRE    FOG       67  67  99 E10       29.91R VSB 1/4
PAYNESVILLE    FOG       68  68  99 NE8       29.91R VSB 1/4
AITKIN         PTSUNNY   64  59  82 E6        29.95S
PINE RIVER     CLOUDY    66  64  94 E9        29.97R
BRAINERD       CLOUDY    67  65  93 SE10      29.94R
STAPLES        MOSUNNY   70  64  83 E7        29.91S
LONG PRAIRIE   CLOUDY    68  66  94 E6        29.92R FOG
LITTLE FALLS   CLOUDY    70  64  83 SE7       29.92S
LITCHFIELD     FOG       70  70 100 E9        29.91R VSB 1/4
BUFFALO        FOG       69  67  93 E5        29.92S VSB 1/2
MAPLE LAKE     FOG       70  69  97 E5        29.92S VSB 1/2
$$
MNZ037-044-045-052-053-031500-
   East Central Minnesota

CITY           SKY/WX    TMP DP  RH WIND       PRES   REMARKS
PRINCETON      CLOUDY    70  66  88 CALM      29.93R
MORA           FOG       64  64 100 E5        29.97R VSB 3/4
CAMBRIDGE      CLOUDY    70  61  73 NE6       29.92S
RUSH CITY      CLOUDY    65  64  97 NE3       29.94S FOG
MOOSE LAKE     CLOUDY    61  61 100 NE6       29.96S FOG
HINCKLEY       CLOUDY    66  64  94 E7        29.96S
CLOQUET        FOG       63  61  94 E6        29.99R VSB 1/2
MCGREGOR       CLOUDY    63  63 100 E5        29.98R
$$
MNZ071>073-080-081-089-090-097-098-031500-
   Southwest Minnesota

CITY           SKY/WX    TMP DP  RH WIND       PRES   REMARKS
MONTEVIDEO     FOG       70  70 100 S10       29.88R VSB 3/4
GRANITE FALLS  CLOUDY    70  70 100 E7        29.88R FOG
CANBY          FOG       68  67  96 SE7       29.86S VSB 1/4
MARSHALL       CLOUDY    70  64  83 SE7       29.87R
REDWOOD FALLS  CLOUDY    70  69  97 SE7       29.87R FOG
OLIVIA         FOG       68  64  88 SE8       29.88R VSB 1
PIPESTONE      SUNNY     72  68  88 S8        29.87S
WINDOM         SUNNY     73  70  88 CALM      29.89R
WORTHINGTON    SUNNY     72  66  83 S7        29.88S
JACKSON        SUNNY     72  70  94 S6        29.90R
TRACY          SUNNY     74  71  88 SE3       29.87S
SLAYTON        MOSUNNY   68  68 100 CALM      29.89S FOG
$$
MNZ065>067-074>077-082>085-091>093-031500-
   South Central Minnesota

CITY           SKY/WX    TMP DP  RH WIND       PRES   REMARKS
MANKATO        SUNNY     72  70  94 S7        29.90S
NEW ULM        SUNNY     72  72 100 SE6       29.89R
ST JAMES       MOSUNNY   72  72 100 SE8       29.90R
FAIRMONT       SUNNY     72  64  78 SE7       29.90R
GLENCOE        FOG       71  71 100 E7        29.90S VSB 1
FARIBAULT      SUNNY     72  70  94 CALM      29.92R
OWATONNA       SUNNY     73  70  88 SE8       29.92S
WASECA         SUNNY     72  70  94 SE6       29.93R
ALBERT LEA     SUNNY     72  70  94 SE5       29.92F FOG
$$
MNZ078>079-086>088-094>096-031500-
   Southeast Minnesota

CITY           SKY/WX    TMP DP  RH WIND       PRES   REMARKS
ROCHESTER      SUNNY     72  69  90 S6        29.94R
RED WING       CLOUDY    72  70  94 E3        29.91S
STANTON        CLOUDY    70  68  94 CALM      29.91R FOG
DODGE CENTER   SUNNY     72  70  94 S3        29.93R
WINONA         FOG       70  68  94 CALM      29.93S VSB 1/4
AUSTIN         SUNNY     73  72  94 S7        29.93S
PRESTON        SUNNY     72  68  87 SW5       29.94S
$$
ABBREVIATIONS USED IN REMARKS
   TC - TEMPERATURES IN CELSIUS
  WCI - WIND CHILL INDEX
   HX - HEAT INDEX
  VSB - VISIBILITY
$$


USA.gov is the U.S. government's official web portal to all federal, state and local government web resources and services.